Météo par heure à Kytaihorod

Ce jour, 25 Juillet, Dimanche

Heure Température Précipitation Vent Pression Humidité
00:00 +20°C° 0 mm 2 m/s 756 mmHg 60%
01:00 +20°C° 0 mm 2 m/s 756 mmHg 62%
02:00 +19°C° 0 mm 2 m/s 756 mmHg 65%
03:00 +19°C° 0 mm 2 m/s 756 mmHg 66%
04:00 +20°C° 0 mm 2 m/s 756 mmHg 66%
05:00 +20°C° 0 mm 2 m/s 756 mmHg 67%
06:00 +21°C° 0 mm 2 m/s 756 mmHg 62%
07:00 +24°C° 0 mm 2 m/s 757 mmHg 58%
08:00 +26°C° 0 mm 2 m/s 757 mmHg 53%
09:00 +27°C° 0 mm 1 m/s 757 mmHg 48%
10:00 +29°C° 0 mm 1 m/s 757 mmHg 43%
11:00 +30°C° 0 mm 1 m/s 757 mmHg 38%
12:00 +30°C° 0 mm 1 m/s 757 mmHg 38%
13:00 +30°C° 0 mm 1 m/s 757 mmHg 38%
14:00 +30°C° 0 mm 1 m/s 757 mmHg 38%
15:00 +30°C° 0 mm 1 m/s 757 mmHg 40%
16:00 +29°C° 0 mm 2 m/s 757 mmHg 42%
17:00 +29°C° 0 mm 2 m/s 757 mmHg 44%
18:00 +27°C° 0 mm 2 m/s 757 mmHg 47%
19:00 +26°C° 0 mm 2 m/s 757 mmHg 49%
20:00 +25°C° 0 mm 2 m/s 757 mmHg 52%
21:00 +25°C° 0 mm 2 m/s 758 mmHg 54%
22:00 +24°C° 0 mm 2 m/s 758 mmHg 56%
23:00 +22°C° 0 mm 3 m/s 758 mmHg 58%

Demain, 26 Juillet, Lundi

Heure Température Précipitation Vent Pression Humidité
00:00 +22°C° 0 mm 3 m/s 758 mmHg 59%
01:00 +21°C° 0 mm 3 m/s 758 mmHg 60%
02:00 +20°C° 0 mm 3 m/s 758 mmHg 60%
03:00 +20°C° 0 mm 3 m/s 758 mmHg 60%
04:00 +20°C° 0 mm 3 m/s 758 mmHg 60%
05:00 +20°C° 0 mm 3 m/s 759 mmHg 60%
06:00 +22°C° 0 mm 3 m/s 759 mmHg 54%
07:00 +25°C° 0 mm 3 m/s 759 mmHg 48%
08:00 +27°C° 0 mm 3 m/s 759 mmHg 42%
09:00 +29°C° 0 mm 3 m/s 759 mmHg 38%
10:00 +30°C° 0 mm 3 m/s 759 mmHg 34%
11:00 +33°C° 0 mm 3 m/s 759 mmHg 30%
12:00 +33°C° 0 mm 3 m/s 758 mmHg 29%
13:00 +34°C° 0 mm 3 m/s 758 mmHg 28%
14:00 +34°C° 0 mm 2 m/s 758 mmHg 27%
15:00 +34°C° 0 mm 2 m/s 758 mmHg 28%
16:00 +32°C° 0 mm 2 m/s 758 mmHg 29%
17:00 +32°C° 0 mm 2 m/s 757 mmHg 30%
18:00 +30°C° 0 mm 2 m/s 758 mmHg 34%
19:00 +28°C° 0 mm 2 m/s 758 mmHg 38%
20:00 +26°C° 0 mm 1 m/s 758 mmHg 42%
21:00 +25°C° 0 mm 1 m/s 758 mmHg 44%
22:00 +25°C° 0 mm 2 m/s 758 mmHg 46%
23:00 +24°C° 0 mm 2 m/s 758 mmHg 48%

Après-demain, 27 Juillet, Mardi

Heure Température Précipitation Vent Pression Humidité
00:00 +23°C° 0 mm 2 m/s 758 mmHg 50%
01:00 +23°C° 0 mm 2 m/s 758 mmHg 52%
02:00 +23°C° 0 mm 2 m/s 758 mmHg 54%
03:00 +21°C° 0 mm 2 m/s 758 mmHg 55%
04:00 +21°C° 0 mm 2 m/s 758 mmHg 57%
05:00 +21°C° 0 mm 2 m/s 759 mmHg 58%
06:00 +24°C° 0 mm 2 m/s 758 mmHg 54%
07:00 +26°C° 0 mm 2 m/s 758 mmHg 49%
08:00 +28°C° 0 mm 3 m/s 758 mmHg 44%
09:00 +30°C° 0 mm 3 m/s 758 mmHg 40%
10:00 +31°C° 0 mm 3 m/s 758 mmHg 36%
11:00 +34°C° 0 mm 3 m/s 758 mmHg 33%
12:00 +34°C° 0 mm 3 m/s 758 mmHg 31%
13:00 +35°C° 0 mm 3 m/s 758 mmHg 30%
14:00 +35°C° 0 mm 3 m/s 757 mmHg 29%
15:00 +34°C° 0 mm 3 m/s 757 mmHg 33%
16:00 +31°C° 0 mm 3 m/s 757 mmHg 37%
17:00 +30°C° 0 mm 4 m/s 757 mmHg 42%
18:00 +29°C° 0 mm 4 m/s 757 mmHg 45%
19:00 +28°C° 0 mm 4 m/s 757 mmHg 49%
20:00 +27°C° 0 mm 4 m/s 757 mmHg 53%
21:00 +26°C° 0 mm 4 m/s 757 mmHg 55%
22:00 +25°C° 0 mm 3 m/s 757 mmHg 57%
23:00 +25°C° 0 mm 3 m/s 757 mmHg 59%

28 Juillet, Mercredi

Heure Température Précipitation Vent Pression Humidité
00:00 +24°C° 0 mm 3 m/s 757 mmHg 61%
01:00 +24°C° 0 mm 3 m/s 757 mmHg 63%
02:00 +22°C° 0 mm 3 m/s 757 mmHg 64%
03:00 +22°C° 0 mm 3 m/s 757 mmHg 65%
04:00 +23°C° 0 mm 2 m/s 757 mmHg 65%
05:00 +23°C° 0 mm 2 m/s 757 mmHg 65%
06:00 +25°C° 0 mm 3 m/s 756 mmHg 58%
07:00 +28°C° 0 mm 3 m/s 756 mmHg 52%
08:00 +30°C° 0 mm 4 m/s 756 mmHg 45%
09:00 +32°C° 0 mm 4 m/s 756 mmHg 41%
10:00 +33°C° 0 mm 5 m/s 756 mmHg 37%
11:00 +35°C° 0 mm 5 m/s 756 mmHg 34%
12:00 +35°C° 0 mm 5 m/s 755 mmHg 35%
13:00 +34°C° 0 mm 4 m/s 755 mmHg 35%
14:00 +34°C° 0 mm 4 m/s 755 mmHg 36%
15:00 +33°C° 0.3 mm 4 m/s 754 mmHg 44%
16:00 +30°C° 0.3 mm 4 m/s 754 mmHg 51%
17:00 +28°C° 0.3 mm 4 m/s 754 mmHg 59%
18:00 +27°C° 1 mm 3 m/s 754 mmHg 66%
19:00 +25°C° 1 mm 3 m/s 754 mmHg 73%
20:00 +24°C° 1 mm 3 m/s 754 mmHg 81%
21:00 +23°C° 1 mm 2 m/s 754 mmHg 83%
22:00 +23°C° 1 mm 1 m/s 754 mmHg 85%
23:00 +22°C° 1 mm 1 m/s 754 mmHg 87%

29 Juillet, Jeudi

Heure Température Précipitation Vent Pression Humidité
00:00 +22°C° 0 mm 1 m/s 754 mmHg 87%
01:00 +21°C° 0 mm 2 m/s 754 mmHg 88%
02:00 +21°C° 0 mm 2 m/s 754 mmHg 88%
03:00 +21°C° 0 mm 2 m/s 754 mmHg 88%
04:00 +21°C° 0 mm 2 m/s 753 mmHg 89%
05:00 +22°C° 0 mm 1 m/s 753 mmHg 90%
06:00 +24°C° 0 mm 1 m/s 754 mmHg 82%
07:00 +26°C° 0 mm 1 m/s 754 mmHg 75%
08:00 +27°C° 0 mm 1 m/s 754 mmHg 68%
09:00 +29°C° 0 mm 1 m/s 754 mmHg 60%
10:00 +31°C° 0 mm 2 m/s 754 mmHg 52%
11:00 +32°C° 0 mm 2 m/s 754 mmHg 43%
12:00 +34°C° 0 mm 2 m/s 753 mmHg 41%
13:00 +35°C° 0 mm 2 m/s 753 mmHg 38%
14:00 +35°C° 0 mm 2 m/s 753 mmHg 35%
15:00 +35°C° 0 mm 2 m/s 753 mmHg 35%
16:00 +35°C° 0 mm 2 m/s 753 mmHg 36%
17:00 +35°C° 0 mm 2 m/s 752 mmHg 36%
18:00 +32°C° 0 mm 2 m/s 752 mmHg 41%
19:00 +30°C° 0 mm 1 m/s 753 mmHg 47%
20:00 +28°C° 0 mm 1 m/s 753 mmHg 52%
21:00 +27°C° 0 mm 1 m/s 753 mmHg 53%
22:00 +26°C° 0 mm 1 m/s 753 mmHg 55%
23:00 +26°C° 0 mm 1 m/s 753 mmHg 56%

30 Juillet, Vendredi

Heure Température Précipitation Vent Pression Humidité
00:00 +25°C° 0.1 mm 1 m/s 753 mmHg 59%
01:00 +25°C° 0.1 mm 1 m/s 753 mmHg 61%
02:00 +24°C° 0.1 mm 1 m/s 753 mmHg 64%
03:00 +24°C° 0.1 mm 1 m/s 753 mmHg 66%
04:00 +24°C° 0.1 mm 1 m/s 753 mmHg 67%
05:00 +24°C° 0.1 mm 1 m/s 753 mmHg 69%
06:00 +26°C° 0 mm 1 m/s 753 mmHg 63%
07:00 +27°C° 0 mm 1 m/s 753 mmHg 58%
08:00 +29°C° 0 mm 1 m/s 753 mmHg 52%
09:00 +31°C° 0 mm 2 m/s 753 mmHg 47%
10:00 +34°C° 0 mm 2 m/s 753 mmHg 42%
11:00 +35°C° 0 mm 2 m/s 753 mmHg 37%
12:00 +35°C° 0 mm 2 m/s 753 mmHg 36%
13:00 +35°C° 0 mm 1 m/s 752 mmHg 35%
14:00 +35°C° 0 mm 1 m/s 752 mmHg 34%
15:00 +36°C° 0 mm 2 m/s 752 mmHg 36%
16:00 +35°C° 0 mm 2 m/s 752 mmHg 38%
17:00 +34°C° 0 mm 2 m/s 752 mmHg 40%
18:00 +32°C° 0 mm 2 m/s 752 mmHg 45%
19:00 +30°C° 0 mm 2 m/s 752 mmHg 49%
20:00 +29°C° 0 mm 1 m/s 752 mmHg 53%
21:00 +28°C° 0 mm 1 m/s 752 mmHg 54%
22:00 +28°C° 0 mm 1 m/s 752 mmHg 56%
23:00 +27°C° 0 mm 2 m/s 752 mmHg 58%
Voir plus

Nous avons besoin de votre consentement

Meteoprog et ses fournisseurs de services peuvent stocker et accéder à des données personnelles telles que des cookies, des identifiants d'appareils ou d'autres technologies similaires sur votre appareil et traiter ces données pour personnaliser le contenu et les publicités, ainsi que pour fournir des fonctionnalités de médias sociaux et analyser le trafic.

  • Stocker et/ou accéder à des informations sur votre appareil

    Des cookies, des identifiants d'appareils ou d'autres informations peuvent être stockés ou accessibles sur votre appareil aux fins indiquées ci-dessus.

  • Annonces et contenus personnalisés, mesure des annonces et des contenus, connaissance de l'audience et développement de produits

    Les annonces et le contenu peuvent être personnalisés en fonction d'un profil. D'autres données peuvent être ajoutées pour mieux personnaliser les annonces et le contenu. Les performances des publicités et du contenu peuvent être mesurées. Il est possible d'obtenir des informations sur le public qui a vu les publicités et le contenu. Ces données peuvent être utilisées pour développer ou améliorer l'expérience de l'utilisateur, les systèmes et les logiciels.

En cliquant sur "J'accepte", vous autorisez l'utilisation de cookies, des identifiants d'appareils, des balises web ou d'autres technologies similaires. Vos paramètres peuvent être modifiés dans le navigateur de votre appareil.

Dans certains cas, des intérêts légitimes peuvent être invoqués plutôt qu'un consentement. Vous pouvez en savoir plus à ce sujet dans notre Politique de confidentialité et de cookies.